QPF
0.01 0.00 0.00 0.00 0.01 0.01 0.01 0.01 0.02 0.03 0.02 0.01 0.01 0.01 0.01 0.01 0.00 0.01 0.01 0.00 0.00 0.01 0.01 0.01 0.02 0.02 0.03 0.03 0.04 0.05 0.11 0.13 0.14 0.14 0.13 0.11 0.10 0.08
0.00 0.00 0.00 0.01 0.01 0.01 0.01 0.01 0.02 0.02 0.02 0.01 0.01 0.01 0.01 0.01 0.00 0.01 0.00 0.01 0.01 0.01 0.00 0.01 0.02 0.02 0.02 0.03 0.04 0.06 0.15 0.13 0.11 0.10 0.10 0.09 0.08 0.08
0.00 0.00 0.00 0.00 0.00 0.00 0.01 0.01 0.01 0.01 0.02 0.02 0.02 0.02 0.02 0.02 0.02 0.02 0.02 0.01 0.01 0.00 0.00 0.00 0.01 0.01 0.01 0.02 0.03 0.04 0.08 0.09 0.09 0.09 0.09 0.09 0.08 0.08
0.00 0.00 0.00 0.00 0.00 0.00 0.01 0.01 0.01 0.01 0.02 0.01 0.02 0.02 0.02 0.02 0.02 0.02 0.01 0.01 0.00 0.00 0.01 0.01 0.00 0.01 0.01 0.01 0.01 0.02 0.02 0.04 0.07 0.08 0.08 0.08 0.08 0.07
0.00 0.00 0.00 0.00 0.00 0.00 0.00 0.00 0.01 0.01 0.01 0.01 0.01 0.01 0.01 0.01 0.01 0.01 0.01 0.00 0.00 0.00 0.00 0.01 0.01 0.01 0.01 0.01 0.01 0.01 0.01 0.02 0.03 0.04 0.06 0.07 0.07 0.06
0.00 0.00 0.00 0.00 0.00 0.00 0.00 0.00 0.00 0.01 0.01 0.01 0.01 0.00 0.00 0.00 0.00 0.01 0.00 0.00 0.00 0.00 0.00 0.00 0.01 0.01 0.01 0.01 0.01 0.01 0.01 0.01 0.01 0.01 0.02 0.03 0.04 0.05
0.00 0.00 0.00 0.00 0.00 0.00 0.00 0.00 0.01 0.01 0.01 0.01 0.01 0.00 0.00 0.00 0.00 0.00 0.00 0.01 0.01 0.00 0.01 0.01 0.01 0.01 0.01 0.01 0.01 0.01 0.01 0.01 0.01 0.00 0.00 0.01 0.01 0.02
0.00 0.00 0.00 0.00 0.00 0.00 0.00 0.00 0.00 0.00 0.01 0.01 0.01 0.01 0.00 0.00 0.00 0.00 0.00 0.01 0.01 0.00 0.00 0.01 0.02 0.01 0.01 0.01 0.00 0.00 0.00 0.01 0.01 0.01 0.01 0.00 0.00 0.00
0.00 0.00 0.00 0.00 0.00 0.00 0.00 0.00 0.00 0.00 0.00 0.00 0.01 0.01 0.01 0.01 0.00 0.00 0.00 0.00 0.00 0.00 0.00 0.02 0.03 0.03 0.02 0.02 0.01 0.00 0.00 0.00 0.00 0.00 0.00 0.00 0.00 0.00
0.00 0.00 0.00 0.00 0.00 0.00 0.00 0.00 0.00 0.00 0.00 0.00 0.00 0.00 0.00 0.00 0.00 0.00 0.00 0.00 0.00 0.00 0.01 0.01 0.02 0.03 0.03 0.02 0.02 0.01 0.01 0.00 0.00 0.00 0.00 0.00 0.00 0.00
0.00 0.00 0.00 0.00 0.00 0.00 0.00 0.00 0.00 0.00 0.00 0.00 0.00 0.00 0.00 0.00 0.01 0.00 0.00 0.00 0.00 0.00 0.01 0.01 0.01 0.01 0.02 0.02 0.02 0.02 0.02 0.01 0.01 0.00 0.00 0.00 0.00 0.00
0.00 0.00 0.00 0.00 0.00 0.00 0.00 0.00 0.00 0.00 0.00 0.00 0.00 0.00 0.00 0.00 0.01 0.01 0.00 0.00 0.00 0.00 0.01 0.01 0.01 0.01 0.01 0.01 0.02 0.02 0.02 0.02 0.01 0.01 0.00 0.00 0.00 0.00
0.00 0.00 0.00 0.00 0.00 0.00 0.00 0.00 0.00 0.00 0.00 0.00 0.00 0.00 0.00 0.00 0.00 0.00 0.00 0.00 0.00 0.01 0.01 0.01 0.01 0.01 0.01 0.01 0.01 0.01 0.01 0.01 0.01 0.01 0.00 0.00 0.00 0.00
0.00 0.00 0.00 0.00 0.00 0.00 0.00 0.00 0.00 0.00 0.00 0.00 0.00 0.00 0.00 0.00 0.00 0.00 0.00 0.00 0.00 0.00 0.01 0.02 0.02 0.01 0.01 0.01 0.01 0.01 0.01 0.00 0.01 0.00 0.00 0.00 0.00 0.00
0.00 0.00 0.00 0.00 0.00 0.00 0.00 0.00 0.00 0.00 0.00 0.00 0.00 0.00 0.00 0.00 0.00 0.00 0.00 0.00 0.00 0.00 0.01 0.01 0.02 0.02 0.01 0.01 0.01 0.00 0.00 0.00 0.00 0.00 0.00 0.00 0.00 0.00
0.00 0.00 0.00 0.00 0.00 0.00 0.00 0.00 0.00 0.00 0.01 0.00 0.00 0.00 0.00 0.00 0.00 0.00 0.00 0.00 0.00 0.00 0.00 0.01 0.02 0.02 0.02 0.01 0.01 0.00 0.00 0.00 0.00 0.00 0.00 0.00 0.00 0.00
0.00 0.00 0.00 0.00 0.00 0.00 0.00 0.00 0.00 0.01 0.01 0.00 0.00 0.00 0.00 0.00 0.00 0.00 0.00 0.00 0.00 0.00 0.01 0.01 0.02 0.02 0.02 0.01 0.01 0.01 0.00 0.00 0.00 0.00 0.00 0.00 0.00 0.00
0.00 0.00 0.00 0.00 0.00 0.00 0.00 0.01 0.01 0.02 0.01 0.01 0.00 0.00 0.01 0.02 0.02 0.01 0.01 0.00 0.00 0.01 0.01 0.01 0.01 0.02 0.02 0.02 0.02 0.01 0.01 0.00 0.00 0.00 0.00 0.00 0.00 0.00
0.00 0.01 0.01 0.00 0.00 0.00 0.00 0.01 0.01 0.01 0.01 0.01 0.01 0.01 0.01 0.02 0.02 0.02 0.01 0.01 0.02 0.02 0.02 0.02 0.01 0.01 0.02 0.02 0.02 0.01 0.01 0.01 0.01 0.00 0.00 0.00 0.00 0.00
0.00 0.00 0.00 0.00 0.00 0.00 0.00 0.01 0.01 0.01 0.01 0.01 0.01 0.01 0.02 0.02 0.01 0.01 0.02 0.02 0.03 0.04 0.03 0.01 0.01 0.01 0.01 0.01 0.01 0.01 0.01 0.01 0.01 0.00 0.00 0.00 0.00 0.00
0.00 0.00 0.00 0.00 0.00 0.00 0.00 0.00 0.00 0.00 0.01 0.00 0.01 0.01 0.02 0.01 0.01 0.01 0.02 0.03 0.03 0.03 0.03 0.02 0.01 0.01 0.01 0.01 0.01 0.01 0.01 0.01 0.01 0.01 0.00 0.01 0.01 0.01
0.00 0.00 0.00 0.00 0.00 0.00 0.00 0.00 0.00 0.00 0.00 0.00 0.01 0.01 0.01 0.02 0.02 0.02 0.02 0.02 0.02 0.02 0.02 0.02 0.01 0.02 0.02 0.02 0.02 0.02 0.02 0.02 0.02 0.02 0.02 0.01 0.02 0.02
0.00 0.00 0.00 0.00 0.00 0.00 0.00 0.00 0.00 0.00 0.00 0.01 0.01 0.01 0.01 0.01 0.01 0.02 0.02 0.02 0.01 0.01 0.01 0.02 0.01 0.01 0.02 0.02 0.02 0.02 0.02 0.02 0.02 0.02 0.01 0.02 0.02 0.02
MSLP
1021.49 1021.72 1021.93 1022.10 1022.20 1022.25 1022.23 1022.17 1022.09 1022.02 1021.97 1021.95 1021.96 1021.97 1021.98 1021.95 1021.86 1021.69 1021.46 1021.16 1020.83 1020.48 1020.14 1019.82 1019.53 1019.26 1018.99 1018.72 1018.41 1018.07 1017.69 1017.27 1016.82 1016.36 1015.90 1015.44 1014.99 1014.52
1021.99 1022.23 1022.45 1022.62 1022.74 1022.79 1022.78 1022.73 1022.65 1022.57 1022.50 1022.46 1022.45 1022.44 1022.41 1022.35 1022.23 1022.05 1021.80 1021.49 1021.15 1020.80 1020.46 1020.16 1019.88 1019.64 1019.40 1019.16 1018.90 1018.60 1018.26 1017.87 1017.45 1017.01 1016.55 1016.08 1015.60 1015.11
1022.50 1022.74 1022.97 1023.16 1023.29 1023.36 1023.36 1023.33 1023.26 1023.18 1023.12 1023.07 1023.03 1022.99 1022.94 1022.84 1022.68 1022.46 1022.18 1021.84 1021.47 1021.10 1020.74 1020.43 1020.15 1019.90 1019.68 1019.47 1019.24 1018.98 1018.68 1018.33 1017.94 1017.53 1017.08 1016.62 1016.14 1015.65
1023.06 1023.30 1023.52 1023.71 1023.86 1023.95 1023.98 1023.96 1023.92 1023.85 1023.79 1023.73 1023.68 1023.62 1023.53 1023.40 1023.21 1022.94 1022.62 1022.24 1021.83 1021.41 1021.02 1020.66 1020.35 1020.08 1019.85 1019.64 1019.43 1019.19 1018.92 1018.62 1018.28 1017.89 1017.48 1017.04 1016.58 1016.10
1023.66 1023.88 1024.09 1024.29 1024.45 1024.55 1024.60 1024.61 1024.58 1024.53 1024.48 1024.41 1024.35 1024.27 1024.15 1023.99 1023.76 1023.46 1023.10 1022.68 1022.22 1021.75 1021.31 1020.89 1020.53 1020.22 1019.96 1019.72 1019.50 1019.28 1019.03 1018.76 1018.45 1018.10 1017.72 1017.32 1016.88 1016.42
1024.27 1024.46 1024.66 1024.85 1025.01 1025.13 1025.20 1025.22 1025.20 1025.16 1025.10 1025.03 1024.95 1024.85 1024.72 1024.53 1024.29 1023.97 1023.58 1023.13 1022.64 1022.13 1021.62 1021.15 1020.73 1020.36 1020.04 1019.76 1019.51 1019.28 1019.03 1018.78 1018.49 1018.18 1017.83 1017.45 1017.04 1016.60
1024.84 1025.01 1025.19 1025.36 1025.52 1025.64 1025.71 1025.73 1025.71 1025.66 1025.59 1025.50 1025.41 1025.30 1025.16 1024.97 1024.72 1024.40 1024.01 1023.56 1023.05 1022.51 1021.97 1021.45 1020.96 1020.53 1020.15 1019.81 1019.52 1019.25 1018.99 1018.73 1018.45 1018.15 1017.82 1017.45 1017.05 1016.63
1025.34 1025.47 1025.63 1025.79 1025.93 1026.04 1026.09 1026.10 1026.06 1025.99 1025.90 1025.79 1025.68 1025.55 1025.41 1025.23 1025.00 1024.70 1024.34 1023.91 1023.42 1022.88 1022.33 1021.78 1021.25 1020.76 1020.31 1019.92 1019.57 1019.26 1018.96 1018.68 1018.38 1018.07 1017.74 1017.37 1016.97 1016.55
1025.73 1025.84 1025.98 1026.12 1026.24 1026.32 1026.35 1026.33 1026.25 1026.15 1026.01 1025.88 1025.73 1025.60 1025.45 1025.28 1025.08 1024.84 1024.52 1024.14 1023.70 1023.20 1022.66 1022.11 1021.56 1021.03 1020.54 1020.09 1019.68 1019.32 1018.97 1018.65 1018.32 1017.99 1017.63 1017.24 1016.83 1016.39
1026.01 1026.10 1026.22 1026.34 1026.44 1026.49 1026.49 1026.42 1026.31 1026.15 1025.97 1025.78 1025.61 1025.45 1025.30 1025.15 1024.99 1024.79 1024.54 1024.23 1023.85 1023.41 1022.92 1022.40 1021.85 1021.31 1020.79 1020.30 1019.85 1019.43 1019.03 1018.66 1018.29 1017.91 1017.52 1017.11 1016.67 1016.20
1026.20 1026.28 1026.39 1026.49 1026.56 1026.59 1026.55 1026.44 1026.27 1026.06 1025.82 1025.58 1025.37 1025.18 1025.02 1024.88 1024.74 1024.59 1024.41 1024.17 1023.87 1023.50 1023.07 1022.59 1022.08 1021.55 1021.02 1020.51 1020.01 1019.55 1019.11 1018.69 1018.27 1017.85 1017.42 1016.98 1016.51 1016.02
1026.35 1026.43 1026.52 1026.60 1026.66 1026.65 1026.57 1026.42 1026.20 1025.93 1025.64 1025.35 1025.08 1024.86 1024.68 1024.53 1024.41 1024.29 1024.16 1023.98 1023.75 1023.45 1023.09 1022.66 1022.19 1021.68 1021.16 1020.64 1020.13 1019.64 1019.16 1018.70 1018.24 1017.79 1017.32 1016.85 1016.36 1015.85
1026.49 1026.56 1026.64 1026.71 1026.74 1026.70 1026.59 1026.39 1026.13 1025.81 1025.47 1025.13 1024.82 1024.56 1024.34 1024.18 1024.06 1023.95 1023.84 1023.70 1023.52 1023.27 1022.96 1022.58 1022.15 1021.68 1021.18 1020.67 1020.15 1019.64 1019.14 1018.65 1018.16 1017.68 1017.19 1016.70 1016.19 1015.68
1026.64 1026.70 1026.77 1026.82 1026.82 1026.75 1026.60 1026.37 1026.08 1025.73 1025.35 1024.98 1024.63 1024.32 1024.08 1023.88 1023.74 1023.62 1023.50 1023.37 1023.20 1022.98 1022.70 1022.36 1021.96 1021.52 1021.04 1020.54 1020.03 1019.51 1019.00 1018.49 1017.99 1017.49 1016.99 1016.48 1015.97 1015.46
1026.80 1026.85 1026.89 1026.91 1026.88 1026.78 1026.60 1026.35 1026.04 1025.67 1025.28 1024.89 1024.51 1024.19 1023.91 1023.68 1023.49 1023.34 1023.19 1023.04 1022.85 1022.63 1022.36 1022.03 1021.65 1021.22 1020.76 1020.27 1019.76 1019.24 1018.73 1018.21 1017.70 1017.18 1016.67 1016.16 1015.65 1015.15
1026.96 1026.97 1026.98 1026.96 1026.89 1026.76 1026.56 1026.30 1025.99 1025.62 1025.24 1024.85 1024.47 1024.13 1023.83 1023.57 1023.34 1023.13 1022.94 1022.74 1022.52 1022.26 1021.97 1021.63 1021.24 1020.81 1020.36 1019.87 1019.36 1018.85 1018.33 1017.80 1017.28 1016.75 1016.23 1015.72 1015.21 1014.70
1027.07 1027.05 1027.01 1026.94 1026.83 1026.68 1026.47 1026.21 1025.90 1025.56 1025.20 1024.84 1024.48 1024.15 1023.83 1023.55 1023.28 1023.02 1022.77 1022.51 1022.22 1021.92 1021.57 1021.20 1020.79 1020.35 1019.88 1019.39 1018.88 1018.35 1017.82 1017.28 1016.74 1016.20 1015.67 1015.14 1014.62 1014.10
1027.12 1027.05 1026.96 1026.84 1026.70 1026.52 1026.31 1026.06 1025.78 1025.48 1025.16 1024.84 1024.52 1024.20 1023.89 1023.59 1023.28 1022.98 1022.66 1022.33 1021.98 1021.61 1021.21 1020.79 1020.34 1019.87 1019.37 1018.86 1018.33 1017.79 1017.24 1016.68 1016.11 1015.55 1014.99 1014.44 1013.89 1013.36
1027.09 1026.98 1026.85 1026.69 1026.52 1026.32 1026.11 1025.88 1025.63 1025.38 1025.11 1024.84 1024.56 1024.27 1023.97 1023.66 1023.32 1022.97 1022.60 1022.20 1021.78 1021.34 1020.88 1020.40 1019.90 1019.39 1018.86 1018.32 1017.76 1017.19 1016.61 1016.02 1015.42 1014.83 1014.23 1013.64 1013.07 1012.50
1027.00 1026.86 1026.70 1026.51 1026.32 1026.12 1025.91 1025.70 1025.49 1025.28 1025.06 1024.83 1024.59 1024.32 1024.03 1023.71 1023.35 1022.95 1022.52 1022.06 1021.58 1021.07 1020.55 1020.01 1019.47 1018.91 1018.35 1017.77 1017.19 1016.58 1015.96 1015.34 1014.70 1014.07 1013.43 1012.80 1012.19 1011.59
1026.88 1026.72 1026.54 1026.35 1026.14 1025.94 1025.74 1025.56 1025.37 1025.19 1025.01 1024.81 1024.58 1024.33 1024.03 1023.69 1023.30 1022.86 1022.38 1021.86 1021.32 1020.76 1020.18 1019.60 1019.01 1018.42 1017.82 1017.21 1016.59 1015.96 1015.31 1014.64 1013.97 1013.30 1012.63 1011.96 1011.31 1010.68
1026.75 1026.60 1026.42 1026.22 1026.02 1025.83 1025.64 1025.46 1025.29 1025.12 1024.94 1024.74 1024.51 1024.24 1023.92 1023.54 1023.11 1022.63 1022.10 1021.54 1020.95 1020.35 1019.73 1019.12 1018.50 1017.88 1017.26 1016.63 1015.98 1015.32 1014.64 1013.95 1013.25 1012.54 1011.84 1011.16 1010.48 1009.83
1026.63 1026.49 1026.33 1026.14 1025.95 1025.76 1025.57 1025.39 1025.21 1025.03 1024.83 1024.60 1024.33 1024.02 1023.65 1023.22 1022.74 1022.21 1021.64 1021.04 1020.41 1019.78 1019.15 1018.52 1017.89 1017.27 1016.63 1015.99 1015.33 1014.66 1013.97 1013.26 1012.54 1011.83 1011.11 1010.41 1009.73 1009.08
Thickness
5693 5692 5690 5690 5689 5688 5687 5684 5678 5672 5671 5675 5676 5678 5677 5676 5675 5674 5673 5672 5671 5671 5670 5670 5670 5670 5670 5670 5670 5670 5671 5672 5673 5673 5673 5672 5672 5671
5690 5688 5687 5686 5685 5685 5684 5683 5680 5674 5669 5671 5672 5673 5673 5672 5670 5669 5668 5667 5666 5666 5665 5664 5664 5663 5663 5663 5662 5662 5662 5662 5663 5663 5663 5663 5663 5662
5687 5685 5683 5683 5681 5681 5680 5678 5676 5673 5667 5667 5669 5669 5668 5667 5666 5665 5664 5663 5662 5661 5660 5659 5658 5657 5656 5655 5655 5654 5653 5653 5652 5652 5653 5653 5653 5653
5682 5681 5679 5679 5677 5676 5675 5673 5671 5670 5665 5661 5662 5663 5662 5662 5661 5660 5659 5657 5656 5656 5654 5653 5652 5651 5649 5648 5646 5645 5645 5644 5643 5643 5643 5643 5643 5643
5678 5677 5675 5674 5672 5671 5670 5668 5667 5666 5663 5659 5657 5657 5656 5656 5655 5654 5653 5651 5650 5649 5648 5646 5645 5644 5642 5641 5639 5637 5636 5635 5634 5634 5633 5633 5633 5633
5675 5673 5672 5670 5668 5667 5665 5663 5662 5659 5657 5654 5651 5650 5650 5650 5648 5645 5643 5644 5643 5643 5641 5639 5637 5636 5635 5633 5632 5630 5628 5627 5626 5625 5624 5623 5623 5622
5670 5669 5667 5666 5665 5662 5660 5657 5656 5653 5650 5647 5644 5643 5641 5640 5638 5638 5635 5635 5635 5635 5633 5632 5630 5629 5627 5626 5624 5622 5620 5618 5617 5615 5614 5613 5612 5612
5666 5665 5664 5662 5660 5657 5655 5653 5651 5647 5643 5640 5638 5635 5634 5633 5632 5631 5628 5625 5623 5626 5625 5623 5623 5620 5619 5618 5616 5614 5612 5610 5608 5606 5605 5603 5602 5601
5663 5661 5660 5658 5655 5652 5650 5648 5646 5643 5641 5636 5632 5630 5628 5627 5626 5623 5620 5617 5615 5617 5616 5614 5614 5612 5611 5610 5608 5606 5603 5601 5599 5597 5595 5593 5591 5590
5659 5657 5655 5653 5651 5648 5645 5642 5640 5638 5636 5633 5630 5627 5625 5623 5620 5617 5614 5612 5610 5609 5607 5603 5603 5602 5603 5601 5599 5597 5594 5591 5589 5586 5584 5582 5580 5578
5655 5653 5651 5649 5647 5644 5640 5636 5634 5631 5630 5628 5625 5622 5619 5616 5613 5609 5605 5601 5598 5598 5598 5594 5593 5592 5592 5591 5589 5586 5584 5581 5578 5575 5572 5570 5568 5566
5650 5649 5647 5644 5642 5639 5634 5630 5626 5625 5624 5621 5618 5615 5613 5609 5606 5601 5597 5591 5588 5586 5587 5584 5581 5579 5578 5579 5577 5574 5572 5569 5566 5563 5561 5558 5556 5554
5645 5643 5641 5639 5636 5633 5629 5625 5622 5620 5617 5614 5611 5608 5605 5602 5598 5594 5590 5585 5580 5576 5577 5574 5570 5567 5564 5564 5564 5563 5560 5557 5554 5551 5548 5546 5544 5541
5640 5638 5636 5633 5630 5626 5623 5620 5617 5614 5610 5606 5602 5599 5595 5592 5590 5586 5583 5579 5576 5572 5569 5565 5561 5557 5553 5551 5550 5550 5548 5545 5542 5539 5537 5534 5531 5528
5635 5633 5630 5627 5623 5619 5616 5614 5610 5606 5602 5598 5594 5591 5588 5585 5582 5578 5575 5571 5568 5564 5560 5557 5552 5548 5544 5540 5538 5537 5535 5533 5530 5527 5524 5521 5519 5517
5629 5626 5624 5620 5617 5613 5610 5607 5603 5599 5595 5590 5587 5584 5581 5577 5573 5569 5564 5560 5556 5553 5551 5547 5543 5539 5534 5531 5528 5525 5522 5519 5517 5515 5512 5509 5507 5505
5624 5620 5616 5612 5609 5606 5603 5600 5596 5592 5588 5584 5580 5575 5571 5567 5563 5560 5555 5550 5545 5541 5539 5537 5533 5529 5525 5521 5517 5514 5511 5507 5505 5502 5500 5497 5495 5492
5619 5614 5610 5606 5603 5600 5596 5592 5589 5585 5581 5578 5573 5568 5563 5559 5554 5550 5546 5540 5535 5531 5528 5525 5522 5518 5514 5511 5507 5503 5499 5495 5493 5490 5487 5484 5483 5481
5612 5608 5605 5601 5597 5594 5590 5585 5581 5578 5574 5569 5565 5561 5556 5552 5547 5541 5536 5531 5526 5522 5518 5515 5510 5504 5499 5497 5496 5492 5487 5485 5481 5478 5475 5473 5471 5470
5606 5603 5599 5595 5592 5587 5583 5578 5574 5569 5565 5560 5556 5552 5547 5542 5537 5532 5527 5522 5517 5512 5508 5504 5499 5494 5489 5486 5484 5481 5477 5473 5470 5467 5465 5462 5460 5459
5600 5597 5593 5589 5585 5580 5576 5571 5566 5561 5556 5552 5547 5542 5538 5532 5527 5522 5517 5513 5507 5502 5497 5493 5489 5485 5481 5477 5473 5470 5466 5462 5458 5456 5454 5451 5448 5446
5595 5591 5586 5582 5578 5573 5568 5563 5558 5553 5548 5543 5538 5533 5528 5523 5518 5513 5508 5502 5497 5492 5487 5483 5479 5474 5469 5465 5461 5458 5455 5452 5448 5445 5442 5439 5436 5434
5589 5584 5580 5575 5570 5565 5560 5555 5550 5544 5539 5534 5529 5524 5518 5513 5508 5503 5498 5493 5487 5482 5477 5472 5467 5462 5458 5454 5449 5446 5444 5441 5438 5435 5433 5430 5427 5426